This demonstration page uses our WeatherBlox Daily Observations layout. Learn more.

Left ArrowRight Arrow

Hourly Observations for August 1, 2015

Temp ( °F °C ) Dew Point ( °F °C ) Humidity (%) Winds ( mph kmh ) Pressure ( in mb ) Visibility ( mi km ) Precip ( " mm )
12:53 am 00:53 Clear 86 30 58 14.4 39 39 SE 9 15 29.93 1014 10 16 0.00 0.00
1:53 am 01:53 Clear 84 28.9 59 15 43 43 ESE 10 17 29.93 1014 10 16 0.00 0.00
2:53 am 02:53 Clear 83 28.3 59 15 44 44 ESE 8 13 29.92 1013 10 16 0.00 0.00
3:53 am 03:53 Clear 81 27.2 59 15 47 47 ESE 10 17 29.91 1013 10 16 0.00 0.00
4:53 am 04:53 Clear 79 26.1 59 15 50 50 E 5 7 29.91 1013 10 16 0.00 0.00
5:53 am 05:53 Clear 77 25 60 15.6 56 56 ESE 7 11 29.90 1013 10 16 0.00 0.00
6:53 am 06:53 Clear 76 24.4 61 16.1 60 60 ESE 7 11 29.91 1013 10 16 0.00 0.00
7:53 am 07:53 Sunny 76 24.4 61 16.1 60 60 ESE 5 7 29.93 1014 10 16 0.00 0.00
8:53 am 08:53 Sunny 80 26.7 63 17.2 56 56 SE 12 19 29.94 1014 10 16 0.00 0.00
9:53 am 09:53 Sunny 84 28.9 64 17.8 51 51 SE 10 17 29.94 1014 10 16 0.00 0.00
10:53 am 10:53 Sunny 89 31.7 64 17.8 43 43 SE 9 15 29.93 1014 10 16 0.00 0.00
11:53 am 11:53 Sunny 94 34.4 60 15.6 32 32 SSE 8 13 29.92 1013 10 16 0.00 0.00
12:53 pm 12:53 Sunny 95 35 59 15 30 30 SSE 12 19 29.91 1013 10 16 0.00 0.00
1:53 pm 13:53 Mostly Sunny 96 35.6 58 14.4 28 28 undefined N/A 29.89 1012 10 16 0.00 0.00
2:53 pm 14:53 Partly Cloudy 96 35.6 56 13.3 26 26 S 7 11 29.86 1011 10 16 0.00 0.00
3:53 pm 15:53 Sunny 100 37.8 53 11.7 21 21 S 9 15 29.82 1010 10 16 0.00 0.00
4:53 pm 16:53 Sunny 101 38.3 54 12.2 21 21 SE 14 22 29.79 1009 10 16 0.00 0.00
5:53 pm 17:53 Sunny 101 38.3 51 10.6 19 19 S 12 19 29.78 1009 10 16 0.00 0.00
6:53 pm 18:53 Mostly Sunny 98 36.7 53 11.7 22 22 SSE 15 24 29.78 1008 10 16 0.00 0.00
7:53 pm 19:53 Sunny 97 36.1 55 12.8 24 24 SSE 18 30 29.77 1008 10 16 0.00 0.00
8:41 pm 20:41 Mostly Cloudy with Haze 92 33.3 60 15.6 34 34 SE 33 54 29.71 1006 3 4 0.00 0.00
8:53 pm 20:53 Partly Cloudy 91 32.8 60 15.6 35 35 SSE 18 30 29.81 1010 8 13 0.00 0.00
9:53 pm 21:53 Mostly Clear 87 30.6 60 15.6 40 40 SSE 15 24 29.83 1010 10 16 0.00 0.00
10:53 pm 22:53 Clear 85 29.4 60 15.6 43 43 SE 14 22 29.86 1011 10 16 0.00 0.00
11:53 pm 23:53 Clear 84 28.9 60 15.6 44 44 SE 13 20 29.85 1011 10 16 0.00 0.00

Powered by AerisWeather